Dewpoint
76 76 76 76 77 77 77 77 76 76 76 76 76 75 75 75 73 73 74 73 72 71 70 70 69 69 67 68 67 68 68 69 68 69 69 69 70 68 68 68 68 68 68 68 67 68 68 67 68 68 68 69 69 68 68 68 68 68 68 68 68 68 67 66 64 63 65 67 66 65 65 67 65 67 66 66 66 67 67 65 65 64 64 65 65
77 76 77 77 76 76 76 76 76 76 75 75 75 75 75 75 75 74 74 74 72 70 70 70 70 69 67 68 68 68 70 69 68 68 69 68 68 67 67 68 68 68 68 67 69 67 68 68 67 68 69 68 67 67 67 66 66 66 67 67 68 69 67 67 66 64 63 66 67 67 66 66 63 67 65 65 65 66 66 66 66 66 65 65 65
76 77 77 77 76 76 77 76 76 76 75 75 73 73 74 75 75 74 73 72 72 71 70 70 70 69 68 68 69 69 70 68 68 69 69 68 67 67 67 68 68 67 67 67 67 67 68 67 66 66 67 67 67 66 66 66 66 66 67 68 67 66 67 67 65 63 62 63 65 64 65 67 66 66 67 67 67 66 65 65 64 64 64 64 64
75 77 76 76 76 76 77 77 75 74 73 74 73 72 72 74 75 74 73 72 72 71 71 70 70 70 68 68 69 68 69 69 69 68 69 68 67 67 67 67 67 67 66 66 66 66 66 66 65 65 66 66 67 67 67 67 67 68 67 67 67 66 67 67 66 65 64 63 64 64 64 65 66 67 67 66 64 65 65 64 65 64 63 64 64
74 75 75 74 75 76 76 76 76 75 74 73 73 72 72 73 74 73 73 72 72 71 71 70 70 69 68 68 69 68 68 69 69 67 68 68 67 67 67 67 67 67 67 67 67 66 66 66 66 66 67 66 67 66 66 66 66 67 67 67 66 66 66 67 68 68 66 64 64 65 66 65 65 65 66 64 65 65 65 64 64 64 64 63 62
73 75 75 75 76 76 75 75 75 75 74 73 72 72 72 74 74 73 73 72 72 71 71 69 69 69 69 69 68 68 68 68 69 68 67 68 68 68 67 67 66 67 66 67 66 67 66 67 67 67 67 66 65 66 66 66 66 66 66 66 66 68 67 68 69 67 66 65 64 64 65 64 64 64 65 66 65 64 63 63 63 63 63 64 62
74 76 75 73 75 76 75 75 75 75 75 74 74 73 72 72 72 72 72 71 71 70 71 69 69 68 68 69 68 68 68 69 69 68 67 67 67 67 67 67 66 66 66 65 65 66 66 66 67 67 67 66 65 65 66 67 65 65 66 67 68 67 67 68 67 66 66 65 64 64 64 64 64 63 65 66 66 64 62 62 61 62 64 64 64
74 76 76 75 75 75 76 75 75 76 76 76 75 74 73 72 73 73 72 72 70 70 70 69 68 68 68 69 69 68 68 68 68 68 67 66 67 67 67 66 65 65 66 66 65 64 65 65 63 65 66 66 66 66 67 67 67 66 69 70 69 67 66 66 66 65 65 63 63 63 64 64 64 64 65 66 64 63 63 62 61 61 62 63 63
74 75 76 76 76 76 77 76 76 76 76 76 76 75 75 74 74 74 73 72 71 70 70 68 68 68 69 69 68 68 67 68 68 67 66 66 67 67 67 66 65 65 66 65 66 66 65 64 63 63 65 69 68 67 67 67 67 68 69 68 67 66 65 65 64 64 63 63 62 62 62 62 62 62 62 63 62 61 62 64 62 62 62 62 63
74 75 76 76 76 77 77 77 76 77 77 76 76 76 75 75 73 74 74 72 72 71 71 69 66 68 69 68 68 68 68 67 66 64 64 66 67 67 67 66 66 66 66 66 65 65 65 64 64 66 68 68 69 69 67 66 66 65 67 67 67 66 65 64 64 63 63 62 61 61 60 59 59 60 60 61 61 63 63 64 61 62 62 61 61
74 75 76 76 77 78 78 77 77 77 77 77 77 76 75 75 74 75 75 74 73 73 72 68 66 68 68 68 67 67 66 66 62 62 63 64 66 67 66 67 67 67 66 67 67 66 66 66 66 67 69 68 67 68 68 67 67 67 66 65 66 66 64 63 62 63 62 61 61 61 60 60 60 61 61 60 61 61 61 63 63 62 60 58 57
74 75 76 77 78 78 78 78 78 78 78 78 77 77 76 75 75 76 75 74 74 73 72 69 69 69 69 66 65 65 65 63 60 62 62 62 65 66 66 67 66 66 67 66 66 66 65 64 64 65 65 65 66 69 67 66 65 65 65 64 63 63 63 64 63 62 62 61 60 60 60 60 60 61 60 60 62 62 62 61 61 60 59 58 58
75 76 77 77 78 78 78 78 78 78 78 78 78 77 77 76 76 75 75 75 74 73 72 70 69 69 68 66 65 64 65 62 60 60 61 61 62 65 66 65 64 65 66 66 65 66 67 67 66 66 70 71 69 68 69 69 67 65 64 64 63 62 61 60 61 63 62 61 60 60 60 61 60 61 64 64 63 62 61 60 60 60 59 59 58
75 76 77 78 78 79 79 79 78 78 78 78 77 77 76 76 75 74 74 75 75 73 71 70 69 68 67 66 65 65 65 61 59 59 60 60 62 64 66 67 68 66 65 65 64 65 67 67 68 70 69 68 69 68 68 68 69 68 68 67 67 66 63 60 59 58 60 60 61 61 61 61 61 63 64 64 62 61 60 59 59 58 58 58 58
76 77 78 78 79 79 79 78 78 78 77 77 77 76 76 75 75 74 73 74 74 73 72 70 68 67 66 65 64 62 62 59 58 58 58 59 60 63 66 65 65 64 63 64 64 64 66 68 69 69 68 69 69 69 67 68 68 67 67 65 65 65 65 64 63 62 61 60 60 61 62 63 63 63 63 64 62 61 60 59 58 58 58 58 58
77 77 78 78 78 79 78 78 77 77 77 76 76 75 75 75 74 75 74 74 74 72 70 68 67 66 65 65 62 61 63 58 57 57 58 58 59 64 66 65 63 63 63 64 64 66 67 67 70 68 67 67 68 66 68 68 67 66 66 65 64 63 61 62 58 58 61 61 62 61 60 60 60 63 62 60 60 61 61 59 58 58 57 57 55
77 77 78 78 78 78 78 78 77 77 76 75 75 74 75 74 75 75 74 74 72 70 68 67 66 64 64 64 63 62 67 59 56 56 57 57 59 64 64 63 63 63 64 64 65 66 66 67 70 69 68 67 66 62 64 67 66 65 64 63 63 61 61 62 58 57 57 56 55 55 55 54 54 53 53 53 57 58 59 58 57 56 55 55 55
78 78 78 78 78 78 78 77 76 76 76 75 74 74 74 74 74 75 74 73 72 69 68 67 66 65 64 63 62 63 66 59 55 54 56 56 60 63 64 63 62 63 64 65 66 67 67 66 69 70 68 68 61 59 61 64 65 65 64 63 61 61 61 58 57 66 57 56 56 55 55 55 55 54 54 53 53 55 57 56 55 55 55 54 52
78 78 78 78 78 78 77 76 75 75 75 74 73 73 73 73 74 74 73 73 72 72 69 67 66 65 63 63 64 63 66 61 54 55 54 55 60 64 64 63 63 63 63 64 65 67 68 68 69 69 68 64 56 58 59 64 64 64 63 62 61 60 61 61 61 60 62 61 62 63 62 59 60 60 60 57 55 56 57 57 57 57 56 55 53
77 78 78 78 77 77 76 75 75 74 73 73 74 74 73 72 73 73 72 72 71 70 69 67 66 65 65 65 65 63 64 64 59 54 53 54 57 64 65 64 62 63 63 63 65 66 72 70 68 63 57 55 54 55 56 58 63 64 64 61 61 60 60 59 61 60 60 59 59 59 59 58 57 58 58 59 61 62 59 58 58 58 57 57 56
78 78 78 77 76 76 75 75 74 73 73 73 73 72 72 72 72 72 71 71 71 71 69 68 68 67 66 64 63 65 65 66 62 53 53 53 54 59 63 63 64 63 64 64 67 68 67 67 67 56 54 53 52 52 51 52 57 62 62 61 62 59 55 58 59 58 58 59 59 59 58 58 58 57 55 57 52 54 58 57 59 59 56 51 47
78 78 77 76 75 74 74 75 74 73 73 73 73 73 73 72 72 71 70 70 68 68 68 67 67 66 64 63 61 61 61 60 64 55 53 52 53 54 62 63 64 64 65 64 68 68 67 66 67 57 53 52 51 49 48 50 53 60 62 51 50 54 58 58 58 57 57 58 58 57 57 56 53 53 52 52 52 54 49 49 49 49 49 47 48
77 77 76 76 75 74 74 74 73 72 73 73 73 72 72 72 71 72 71 69 67 67 66 66 66 65 65 65 62 60 60 59 58 60 53 52 51 52 57 63 59 69 65 65 68 67 67 68 66 56 52 49 47 47 47 49 51 56 51 51 52 53 55 56 57 58 58 57 57 57 58 55 54 53 53 55 54 57 54 52 51 50 51 50 51
77 76 75 74 73 73 72 72 72 72 73 73 73 72 72 72 71 71 70 68 67 67 67 65 64 63 63 63 64 63 62 61 58 58 58 52 51 51 52 55 56 65 69 67 69 67 67 66 60 51 47 44 45 47 49 50 56 48 49 51 53 54 56 58 58 59 59 57 57 56 56 56 55 55 57 56 55 57 56 54 53 52 52 52 52
75 74 73 73 72 72 72 72 72 72 72 72 72 72 71 71 70 70 68 67 66 66 65 64 64 63 63 63 63 64 70 67 63 60 56 54 52 51 52 54 53 56 69 65 65 63 57 50 46 46 46 45 47 48 49 49 49 48 50 52 55 56 57 58 57 58 58 58 57 56 55 57 58 57 59 58 56 54 54 54 53 53 51 51 51
74 73 73 72 71 71 70 70 70 71 71 72 72 71 70 69 68 68 67 66 66 65 64 63 63 63 63 63 64 66 67 66 64 61 58 56 55 53 53 55 57 58 59 59 55 52 50 49 48 48 49 50 54 55 57 57 51 52 52 53 55 56 57 57 58 58 57 57 56 57 57 56 56 57 55 54 54 53 54 54 53 52 51 51 49
73 73 72 71 71 70 70 68 69 69 71 71 71 71 70 69 69 68 67 66 66 65 64 64 64 63 63 64 66 66 66 65 64 63 62 61 59 57 57 58 58 57 58 56 55 54 53 54 54 53 54 54 57 58 59 56 54 53 55 55 56 56 57 58 58 58 58 59 57 55 57 56 57 56 55 55 55 56 54 53 50 48 49 50 50
72 72 71 71 70 71 70 70 69 68 68 69 69 69 69 69 68 67 66 66 66 66 65 65 64 63 63 64 65 65 66 65 64 63 63 62 61 60 61 60 60 62 59 58 58 56 55 55 53 57 58 57 57 58 58 58 57 56 56 56 56 57 57 57 57 57 57 56 55 56 56 58 56 53 52 51 50 50 51 51 50 50 50 48 46
72 71 71 69 69 70 69 69 68 68 64 61 56 54 55 62 68 69 69 65 68 69 66 66 65 63 62 63 65 65 64 64 65 59 63 59 62 61 61 61 60 61 60 57 61 59 58 57 56 55 56 56 56 56 55 57 58 58 58 57 57 56 57 56 56 57 56 57 57 59 55 55 53 51 51 49 49 50 51 50 52 50 49 49 47
69 67 67 66 66 67 67 65 66 66 63 60 57 53 48 45 49 57 60 53 48 44 49 66 67 65 68 68 68 65 64 65 56 52 52 52 49 50 53 54 54 58 57 54 60 59 58 57 56 56 56 56 54 55 55 55 57 57 57 56 55 54 55 56 54 52 56 58 55 53 53 52 50 50 50 47 48 48 50 48 47 48 49 48 46
67 65 66 64 64 66 66 65 67 66 64 63 62 59 57 54 43 43 47 47 45 43 43 44 55 59 65 64 59 53 52 50 49 48 47 45 43 43 43 45 48 51 51 57 57 58 58 57 55 56 57 52 50 49 53 52 53 55 55 55 55 53 52 53 55 53 57 52 52 53 53 52 51 49 45 44 45 45 45 47 48 49 48 45 43
67 65 64 65 66 68 66 68 66 65 65 65 64 64 62 60 57 47 43 45 44 43 43 45 47 50 53 55 56 56 50 46 44 43 42 41 41 41 42 43 44 46 48 54 63 61 61 60 59 54 53 50 50 54 49 48 55 55 55 54 54 55 55 50 53 50 50 50 51 51 52 51 48 44 43 43 45 44 44 46 46 45 45 44 45
64 63 68 68 68 68 68 67 66 66 65 65 64 65 64 63 60 57 54 45 44 43 42 42 44 47 46 46 48 49 45 42 42 41 41 41 41 41 41 42 45 47 51 59 60 58 58 57 54 54 52 52 51 54 57 50 50 51 51 55 56 54 50 53 54 51 53 51 50 49 50 50 47 45 46 46 44 42 44 44 45 45 45 45 44
66 66 65 66 68 68 67 67 66 66 65 65 64 64 64 63 61 60 59 60 59 52 47 43 42 42 42 43 43 42 41 41 41 41 41 41 41 42 44 46 41 44 54 60 54 56 58 55 52 52 54 54 50 50 56 55 54 53 52 50 54 55 56 57 57 56 53 51 49 47 47 42 42 44 43 42 42 43 43 42 43 43 44 44 41
68 68 68 68 67 67 66 67 66 65 65 64 64 63 63 64 63 62 61 61 59 58 56 54 46 44 47 44 42 42 42 41 41 41 42 42 42 41 45 55 58 57 57 57 58 57 57 57 54 54 55 54 53 53 53 54 58 57 57 56 55 52 53 51 50 47 48 50 47 44 44 43 39 39 40 43 44 43 42 42 40 42 43 41 41
65 66 67 67 66 67 66 67 67 66 65 65 64 63 63 64 63 62 61 59 58 57 55 53 50 46 43 42 41 42 42 42 42 42 42 42 42 47 58 57 57 57 55 56 54 54 57 55 53 55 56 55 56 59 57 57 56 55 56 53 51 50 54 47 48 47 47 44 42 44 40 40 40 41 40 41 42 42 40 39 40 40 41 40 43
64 64 64 66 66 67 67 67 67 66 64 64 64 64 63 63 62 62 61 59 59 58 55 52 52 52 51 50 45 40 40 40 41 41 42 42 42 50 57 53 52 52 54 53 55 55 54 55 56 57 57 58 58 57 57 57 57 55 52 57 55 54 52 49 48 49 49 45 45 43 42 38 41 44 40 40 40 40 38 39 40 40 41 43 44
65 64 65 66 67 67 67 67 65 63 65 64 66 65 63 63 62 62 60 59 58 57 56 56 56 56 54 52 51 48 45 41 40 41 41 43 49 54 57 57 57 56 55 57 58 56 56 57 57 59 58 58 59 55 53 54 55 52 51 56 56 55 50 51 51 51 52 50 45 44 43 42 45 43 44 41 40 39 40 39 37 38 40 43 41
66 62 60 61 63 65 65 65 64 64 63 64 63 63 62 61 61 61 60 58 57 57 57 57 56 55 54 52 51 49 48 49 49 49 50 50 51 53 53 53 55 55 55 58 56 56 59 59 57 58 57 57 56 55 57 56 54 53 54 51 47 49 50 49 47 48 46 45 47 47 49 47 43 46 45 40 37 39 38 37 38 39 39 39 40
64 64 62 61 63 64 64 64 64 63 62 62 62 62 61 61 61 61 59 58 57 57 57 57 56 55 53 53 51 49 49 49 50 51 51 51 52 53 54 53 54 54 55 57 56 57 54 55 60 59 58 59 56 57 57 53 50 50 51 50 52 48 45 45 46 46 45 46 48 48 46 45 47 46 43 41 39 39 39 39 40 40 40 40 40
63 63 64 61 60 62 62 61 61 61 60 62 61 60 59 61 62 61 60 58 57 57 57 57 56 55 53 52 47 47 53 52 52 52 52 52 53 53 54 55 53 53 53 57 56 55 55 55 59 56 52 57 57 59 56 54 53 50 47 49 49 46 44 44 44 44 45 47 48 47 47 47 48 44 38 39 40 39 41 42 39 38 40 39 39
65 62 63 62 63 62 60 60 59 62 62 62 61 60 61 61 61 61 60 59 58 57 57 57 57 55 51 46 43 43 55 54 54 53 53 52 53 54 53 53 55 58 54 55 54 51 52 55 51 52 54 53 53 53 51 48 51 52 49 47 48 45 42 42 44 48 48 44 47 45 48 45 45 43 41 40 39 40 41 38 37 40 40 39 39
64 63 63 62 62 61 60 61 61 60 61 60 60 62 63 62 62 61 60 59 58 57 57 57 57 56 53 46 46 46 55 55 54 54 52 52 53 53 53 53 52 53 56 57 54 56 55 54 56 55 53 50 53 54 52 51 53 49 45 46 45 42 42 42 42 42 45 47 47 44 42 39 41 42 41 41 39 41 39 40 41 40 40 40 40
61 60 61 61 62 60 61 61 61 61 60 61 62 61 61 61 60 61 62 59 58 57 57 57 57 55 52 50 49 51 55 54 54 53 54 53 53 52 51 52 54 53 52 55 52 55 51 47 49 51 53 53 54 49 48 50 49 48 50 47 42 40 41 40 40 41 40 40 41 41 41 42 42 41 41 42 41 40 39 41 42 41 40 39 39
59 58 59 60 61 61 61 64 61 62 61 61 60 60 61 61 61 59 57 58 58 56 55 58 56 54 52 51 51 51 53 54 55 55 55 54 52 52 52 52 53 58 53 51 53 51 50 49 49 50 51 52 51 53 52 49 47 48 44 48 44 44 45 42 41 40 40 42 39 41 40 40 41 41 40 40 41 41 39 41 40 43 41 40 39
52 55 56 58 60 60 61 60 60 60 60 58 58 58 57 57 57 56 55 56 56 55 55 57 56 54 53 52 51 50 51 53 54 54 54 53 51 51 53 52 52 52 50 52 52 52 49 49 50 48 50 52 51 48 48 48 50 46 47 45 45 46 41 40 40 40 39 40 39 39 39 41 41 40 40 41 41 40 40 42 43 42 41 39 38
57 57 57 57 57 58 59 60 59 58 57 56 56 55 55 54 56 56 56 56 55 56 57 56 55 55 55 54 53 52 52 53 53 54 55 55 55 53 52 52 52 50 51 52 53 49 49 50 48 49 49 48 52 50 49 49 46 43 46 44 44 42 40 41 39 40 39 38 37 35 36 36 37 38 40 43 42 41 42 41 42 42 41 39 39
56 56 58 58 59 58 58 57 55 57 56 56 56 54 53 54 55 54 55 55 56 57 57 57 57 57 56 55 54 54 54 53 53 53 53 53 53 52 52 52 51 50 51 51 50 48 47 48 48 48 51 54 50 48 50 49 46 48 46 44 41 38 39 40 43 40 37 36 34 35 35 34 36 39 41 42 42 41 42 41 40 37 39 39 39
57 58 57 57 58 57 55 55 56 55 54 54 55 55 56 55 55 54 55 55 55 57 60 58 58 57 56 56 55 54 54 54 53 54 52 52 54 54 55 53 52 51 50 48 48 48 50 50 49 49 48 52 51 49 48 46 43 44 41 37 37 34 31 34 36 38 32 35 36 36 37 38 39 41 41 43 42 42 42 43 39 38 38 40 39
56 56 56 57 58 57 57 57 56 55 58 56 56 56 55 56 56 56 57 56 57 59 58 58 57 58 57 57 55 54 54 54 53 52 52 52 52 53 53 53 52 51 50 50 48 48 48 49 51 48 49 50 48 48 45 44 43 42 40 37 33 30 29 29 30 30 37 37 33 32 32 35 37 39 41 42 43 43 42 39 38 38 38 39 40
58 56 57 56 55 57 56 56 55 57 57 56 57 56 55 57 56 57 56 56 55 56 57 57 56 55 56 56 55 54 54 54 53 53 53 52 53 53 53 52 52 52 51 51 52 48 48 48 47 48 47 47 47 46 46 45 43 41 37 33 31 31 31 32 36 30 34 33 32 33 32 35 37 39 41 42 42 41 42 40 39 39 40 38 40